This is the latest recevied weather packets stored in our database for station/object W8BS. If no packets are shown the sender has not sent any weather packets the latest 10 day(s).
| Time | Temp. | Humidity | Pressure | Rain* | Wind** | Luminosity | Snow |
|---|---|---|---|---|---|---|---|
| 1777996783 | 21.67° C | 49% | 1012.5 hPa | 0 mm | - | 694 W/m² | - |
| 1777996479 | 21.67° C | 49% | 1012.4 hPa | 0 mm | - | 299 W/m² | - |
| 1777996176 | 21.67° C | 50% | 1012.4 hPa | 0 mm | - | 701 W/m² | - |
| 1777995872 | 21.67° C | 49% | 1012.5 hPa | 0 mm | - | 691 W/m² | - |
| 1777995568 | 21.67° C | 50% | 1012.4 hPa | 0 mm | - | 713 W/m² | - |
| 1777995266 | 22.78° C | 48% | 1012.3 hPa | 0 mm | - | 362 W/m² | - |
| 1777994962 | 21.67° C | 52% | 1012.5 hPa | 0 mm | - | 814 W/m² | - |
| 1777994654 | 20.56° C | 51% | 1012.8 hPa | 0 mm | - | 797 W/m² | - |
| 1777994354 | 20.56° C | 52% | 1012.5 hPa | 0 mm | - | 773 W/m² | - |
| 1777994050 | 20.56° C | 52% | 1012.3 hPa | 0 mm | - | 738 W/m² | - |
| 1777993748 | 20.56° C | 52% | 1012.5 hPa | 0 mm | - | 764 W/m² | - |
| 1777993445 | 20° C | 53% | 1012.5 hPa | 0 mm | - | 740 W/m² | - |
| 1777993139 | 20° C | 53% | 1012.4 hPa | 0 mm | - | 650 W/m² | - |
| 1777992837 | 20.56° C | 52% | 1012.4 hPa | 0 mm | - | 637 W/m² | - |
| 1777992534 | 20.56° C | 52% | 1012.4 hPa | 0 mm | - | 413 W/m² | - |
| 1777992233 | 20.56° C | 52% | 1012.5 hPa | 0 mm | - | 643 W/m² | - |
| 1777991929 | 20° C | 53% | 1012.6 hPa | 0 mm | - | 659 W/m² | - |
| 1777991627 | 20° C | 53% | 1012.5 hPa | 0 mm | - | 610 W/m² | - |
| 1777991324 | 20.56° C | 52% | 1012.5 hPa | 0 mm | - | 665 W/m² | - |
| 1777991021 | 21.11° C | 52% | 1012.6 hPa | 0 mm | - | 671 W/m² | - |
| 1777990719 | 20° C | 53% | 1012.6 hPa | 0 mm | - | 623 W/m² | - |
| 1777990416 | 20.56° C | 53% | 1012.6 hPa | 0 mm | - | 622 W/m² | - |
| 1777989809 | 20° C | 52% | 1012.6 hPa | 0 mm | - | 668 W/m² | - |
| 1777989506 | 20° C | 53% | 1012.6 hPa | 0 mm | - | 617 W/m² | - |
| 1777989202 | 20.56° C | 53% | 1012.6 hPa | 0 mm | - | 717 W/m² | - |
* Rain latest hour (hover to see other rain measurements)
** Current wind speed in m/s (hover to see current wind gust speed)